Date String (YYYY-MM-DD hh:mm:ss) UTC,Instrument flags,Ambient pressure (hPa),Sample flow (lpm),Bypass flow (lpm),Sample temperature (°C),Ambient temperature (°C),ASC tube jacket temperature (°C),LED temperature (°C),Box temperature (°C),Sample RH (%),Span deviation,Mass concentration (μg/m³),Mass concentration (μg/m³),Mass concentration (μg/m³)
DateTimeUTC,F1_M11,P_M11,Q1_M11,Q2_M11,T1_M11,T2_M11,T3_M11,T4_M11,T5_M11,U1_M11,ZSPAN_M11,X0_M11,X2_M11,X1_M11
2022-07-11 18:00:00,,0834.7,5.01,0.00,29.7,28.2,00.0,38.6,31.6,31.0,0000.0,0014.46,0005.34,0004.45
2022-07-11 18:01:00,,0834.7,5.00,0.00,29.8,28.3,00.0,38.6,31.6,31.0,0000.0,0014.14,0005.33,0004.46
2022-07-11 18:02:00,,0834.7,5.01,0.00,29.8,28.4,00.0,38.6,31.7,30.7,0000.0,0014.32,0005.35,0004.47
2022-07-11 18:03:00,,0834.7,5.00,0.00,29.8,28.5,00.0,38.6,31.7,30.7,0000.0,0014.52,0005.33,0004.48
2022-07-11 18:04:00,,0834.7,5.00,0.00,29.8,28.6,00.0,38.6,31.7,30.6,0000.0,0014.77,0005.37,0004.48
2022-07-11 18:05:00,,0834.7,5.00,0.00,29.8,28.7,00.0,38.6,31.8,30.6,0000.0,0014.57,0005.37,0004.49
2022-07-11 18:06:00,,0834.7,5.00,0.00,29.9,28.7,00.0,38.6,31.8,30.5,0000.0,0013.64,0005.38,0004.51
2022-07-11 18:07:00,,0834.6,4.99,0.00,29.9,28.8,00.0,38.6,31.8,30.4,0000.0,0013.59,0005.44,0004.53
2022-07-11 18:08:00,,0834.6,5.00,0.00,29.9,28.9,00.0,38.6,31.9,30.6,0000.0,0014.09,0005.47,0004.53
2022-07-11 18:09:00,,0834.5,5.00,0.00,29.9,28.9,00.0,38.7,31.9,30.5,0000.0,0014.35,0005.50,0004.55
2022-07-11 18:10:00,,0834.5,4.99,0.00,30.0,28.7,00.0,38.7,31.9,30.6,0000.0,0014.19,0005.54,0004.56
2022-07-11 18:11:00,,0834.6,5.01,0.00,29.9,27.9,00.0,38.6,31.7,30.7,0000.0,0013.40,0005.59,0004.58
2022-07-11 18:12:00,,0834.6,5.00,0.00,29.9,27.3,00.0,38.5,31.6,31.0,0000.0,0013.25,0005.59,0004.59
2022-07-11 18:13:00,,0834.6,5.00,0.00,29.8,27.2,00.0,38.5,31.5,31.3,0000.0,0013.01,0005.58,0004.59
2022-07-11 18:14:00,,0834.6,5.00,0.00,29.7,27.2,00.0,38.5,31.4,31.5,0000.0,0012.99,0005.61,0004.60
2022-07-11 18:15:00,,0834.6,4.99,0.00,29.6,27.3,00.0,38.5,31.4,31.6,0000.0,0013.80,0005.58,0004.60
2022-07-11 18:16:00,,0834.6,5.01,0.00,29.6,27.5,00.0,38.5,31.4,31.4,0000.0,0013.95,0005.62,0004.61
2022-07-11 18:17:00,,0834.6,4.99,0.00,29.6,27.7,00.0,38.5,31.4,31.4,0000.0,0014.30,0005.63,0004.61
2022-07-11 18:18:00,,0834.5,5.00,0.00,29.6,27.8,00.0,38.5,31.4,31.3,0000.0,0014.09,0005.61,0004.62
2022-07-11 18:19:00,,0834.5,5.00,0.00,29.6,28.0,00.0,38.4,31.5,31.3,0000.0,0013.64,0005.63,0004.65
2022-07-11 18:20:00,,0834.5,5.00,0.00,29.6,28.1,00.0,38.4,31.5,31.3,0000.0,0013.54,0005.70,0004.67
2022-07-11 18:21:00,,0834.5,5.00,0.00,29.7,28.2,00.0,38.5,31.5,31.3,0000.0,0014.13,0005.67,0004.67
2022-07-11 18:22:00,,0834.5,5.00,0.00,29.7,28.4,00.0,38.5,31.6,31.3,0000.0,0015.30,0005.66,0004.68
2022-07-11 18:23:00,,0834.5,5.00,0.00,29.7,28.5,00.0,38.5,31.6,31.3,0000.0,0016.33,0005.71,0004.70
2022-07-11 18:24:00,,0834.4,5.00,0.00,29.7,28.5,00.0,38.5,31.7,31.3,0000.0,0016.53,0005.77,0004.73
2022-07-11 18:25:00,,0834.4,4.98,0.00,29.8,28.6,00.0,38.5,31.7,31.2,0000.0,0016.55,0005.79,0004.75
2022-07-11 18:26:00,,0834.4,5.01,0.00,29.8,28.7,00.0,38.5,31.7,31.0,0000.0,0015.70,0005.83,0004.79
2022-07-11 18:27:00,,0834.4,4.99,0.00,29.8,28.8,00.0,38.5,31.8,31.0,0000.0,0015.60,0005.85,0004.82
2022-07-11 18:28:00,,0834.4,5.00,0.00,29.8,28.8,00.0,38.5,31.8,31.0,0000.0,0015.12,0005.85,0004.85
2022-07-11 18:29:00,,0834.4,5.01,0.00,29.9,28.9,00.0,38.6,31.8,30.9,0000.0,0015.24,0005.86,0004.86
2022-07-11 18:30:00,,0834.4,5.00,0.00,29.9,28.9,00.0,38.6,31.9,30.8,0000.0,0014.95,0005.86,0004.88
2022-07-11 18:31:00,,0834.3,5.00,0.00,29.9,28.9,00.0,38.6,31.9,30.8,0000.0,0014.42,0005.83,0004.89
2022-07-11 18:32:00,,0834.3,4.99,0.00,29.9,28.2,00.0,38.5,31.8,30.8,0000.0,0013.79,0005.89,0004.91
2022-07-11 18:33:00,,0834.3,5.00,0.00,29.9,27.5,00.0,38.5,31.6,30.7,0000.0,0012.63,0005.92,0004.93
2022-07-11 18:34:00,,0834.3,5.00,0.00,29.8,27.2,00.0,38.5,31.5,30.9,0000.0,0012.14,0005.94,0004.96
2022-07-11 18:35:00,,0834.3,5.00,0.00,29.7,27.2,00.0,38.5,31.4,31.0,0000.0,0012.61,0005.95,0004.99
2022-07-11 18:36:00,,0834.3,5.01,0.00,29.6,27.3,00.0,38.4,31.4,31.0,0000.0,0013.17,0005.99,0005.03
2022-07-11 18:37:00,,0834.3,4.99,0.00,29.6,27.5,00.0,38.4,31.4,31.3,0000.0,0012.85,0006.01,0005.06
2022-07-11 18:38:00,,0834.3,5.00,0.00,29.6,27.7,00.0,38.4,31.4,31.6,0000.0,0013.21,0006.02,0005.06
2022-07-11 18:39:00,,0834.3,5.01,0.00,29.6,27.8,00.0,38.4,31.4,31.7,0000.0,0013.88,0006.03,0005.06
2022-07-11 18:40:00,,0834.3,5.00,0.00,29.6,28.0,00.0,38.4,31.5,31.6,0000.0,0014.42,0006.06,0005.07
2022-07-11 18:41:00,,0834.2,5.00,0.00,29.6,28.1,00.0,38.4,31.5,31.6,0000.0,0014.47,0006.03,0005.08
2022-07-11 18:42:00,,0834.1,5.00,0.00,29.6,28.2,00.0,38.4,31.5,31.4,0000.0,0014.56,0006.03,0005.08
2022-07-11 18:43:00,,0834.1,5.00,0.00,29.7,28.4,00.0,38.4,31.6,31.5,0000.0,0014.26,0006.00,0005.10
2022-07-11 18:44:00,,0834.1,5.00,0.00,29.7,28.5,00.0,38.5,31.6,31.4,0000.0,0014.37,0006.01,0005.12
2022-07-11 18:45:00,,0834.1,5.00,0.00,29.7,28.5,00.0,38.5,31.7,31.2,0000.0,0014.38,0006.02,0005.13
2022-07-11 18:46:00,,0834.1,5.00,0.00,29.7,28.6,00.0,38.5,31.7,31.1,0000.0,0014.23,0006.06,0005.16
2022-07-11 18:47:00,,0834.1,5.01,0.00,29.8,28.7,00.0,38.5,31.8,31.1,0000.0,0013.69,0006.11,0005.18
2022-07-11 18:48:00,,0834.1,5.00,0.00,29.8,28.8,00.0,38.5,31.8,31.3,0000.0,0013.84,0006.13,0005.18
2022-07-11 18:49:00,,0834.0,5.00,0.00,29.8,28.9,00.0,38.6,31.8,31.2,0000.0,0013.49,0006.15,0005.20
2022-07-11 18:50:00,,0834.1,5.00,0.00,29.9,28.9,00.0,38.6,31.9,31.1,0000.0,0013.52,0006.20,0005.23
2022-07-11 18:51:00,,0834.0,5.00,0.00,29.9,29.0,00.0,38.6,31.9,30.9,0000.0,0013.58,0006.22,0005.26
2022-07-11 18:52:00,,0834.1,4.99,0.00,29.9,28.5,00.0,38.6,31.8,30.9,0000.0,0013.58,0006.28,0005.30
2022-07-11 18:53:00,,0834.0,5.01,0.00,29.9,27.7,00.0,38.5,31.7,30.9,0000.0,0014.49,0006.33,0005.33
2022-07-11 18:54:00,,0834.0,5.00,0.00,29.8,27.3,00.0,38.5,31.6,30.9,0000.0,0015.02,0006.38,0005.37
2022-07-11 18:55:00,,0834.0,4.99,0.00,29.7,27.3,00.0,38.5,31.4,30.8,0000.0,0015.00,0006.47,0005.43
2022-07-11 18:56:00,,0834.0,5.01,0.00,29.7,27.3,00.0,38.4,31.4,30.8,0000.0,0015.08,0006.58,0005.52
2022-07-11 18:57:00,,0834.0,4.99,0.00,29.6,27.5,00.0,38.4,31.4,31.0,0000.0,0015.35,0006.66,0005.57
2022-07-11 18:58:00,,0834.0,4.99,0.00,29.6,27.7,00.0,38.4,31.4,31.1,0000.0,0016.14,0006.69,0005.61
2022-07-11 18:59:00,,0833.9,5.00,0.00,29.6,27.8,00.0,38.4,31.4,30.9,0000.0,0017.32,0006.77,0005.67
